RPC6176 RPLL-RPUK

Flight info

Callsign RPC6176
Flight time 0h 21m
Altitude 12000
Route CLAIR DCT CLENA DCT TAALA DCT VERDE
Aircraft B350/L-SBGRW/S

Departure

Time 2026-04-26 02:57
Airport Ninoy Aquino International Airport (RPLL)

Arrival

Time 2026-04-26 03:19
Airport Calapan National Airport (RPUK)
Time Latitude Longitude Altitude Speed Heading
2026-04-26 02:52 14.51989 121.00495 35 ft 0 kts 234°
2026-04-26 02:53 14.51987 121.00493 35 ft 0 kts 220°
2026-04-26 02:54 14.51949 121.00482 35 ft 16 kts 195°
2026-04-26 02:55 14.51934 121.00448 35 ft 11 kts 359°
2026-04-26 02:55 14.51994 121.00499 35 ft 5 kts 56°
2026-04-26 02:55 14.51998 121.00558 35 ft 15 kts 156°
2026-04-26 02:55 14.51953 121.00612 36 ft 4 kts 29°
2026-04-26 02:56 14.52068 121.00631 33 ft 17 kts 11°
2026-04-26 02:56 14.52109 121.00674 33 ft 2 kts 141°
2026-04-26 02:56 14.52089 121.00686 34 ft 0 kts 133°
2026-04-26 02:57 14.52089 121.00687 34 ft 0 kts 133°
2026-04-26 02:57 14.52075 121.00701 34 ft 28 kts 134°
2026-04-26 02:57 14.51645 121.01135 151 ft 124 kts 137°
2026-04-26 02:57 14.50969 121.01794 872 ft 143 kts 140°
2026-04-26 02:58 14.50044 121.02123 1485 ft 143 kts 186°
2026-04-26 02:58 14.49096 121.01677 1489 ft 161 kts 204°
2026-04-26 02:58 14.47996 121.01446 1636 ft 162 kts 180°
2026-04-26 02:58 14.46872 121.01465 1803 ft 163 kts 178°
2026-04-26 02:59 14.45746 121.01491 2018 ft 162 kts 178°
2026-04-26 02:59 14.44610 121.01522 2188 ft 162 kts 177°
2026-04-26 02:59 14.43472 121.01529 2397 ft 165 kts 178°
2026-04-26 02:59 14.42333 121.01585 2635 ft 164 kts 175°
2026-04-26 03:00 14.41189 121.01638 2813 ft 169 kts 175°
2026-04-26 03:00 14.40393 121.01655 2940 ft 169 kts 177°
2026-04-26 03:00 14.38847 121.01684 3218 ft 168 kts 176°
2026-04-26 03:00 14.37680 121.01713 3451 ft 168 kts 175°
2026-04-26 03:01 14.36511 121.01748 3643 ft 168 kts 175°
2026-04-26 03:01 14.35340 121.01782 3815 ft 168 kts 175°
2026-04-26 03:01 14.34173 121.01811 4066 ft 168 kts 173°
2026-04-26 03:01 14.32996 121.01841 4256 ft 169 kts 174°
2026-04-26 03:02 14.31823 121.01877 4488 ft 169 kts 174°
2026-04-26 03:02 14.31042 121.01897 4615 ft 170 kts 176°
2026-04-26 03:02 14.29851 121.01928 4771 ft 175 kts 175°
2026-04-26 03:02 14.28605 121.01961 4859 ft 187 kts 176°
2026-04-26 03:03 14.27191 121.02006 4929 ft 216 kts 177°
2026-04-26 03:03 14.25104 121.02091 5170 ft 226 kts 177°
2026-04-26 03:03 14.23525 121.02083 5470 ft 228 kts 179°
2026-04-26 03:03 14.21926 121.02110 5755 ft 230 kts 177°
2026-04-26 03:04 14.20348 121.02175 6058 ft 230 kts 177°
2026-04-26 03:04 14.18743 121.02227 6347 ft 232 kts 177°
2026-04-26 03:04 14.17126 121.02303 6591 ft 234 kts 176°
2026-04-26 03:04 14.15488 121.02317 6840 ft 235 kts 178°
2026-04-26 03:05 14.13850 121.02346 7138 ft 236 kts 177°
2026-04-26 03:05 14.12203 121.02397 7388 ft 237 kts 177°
2026-04-26 03:05 14.10578 121.02446 7638 ft 238 kts 176°
2026-04-26 03:05 14.08920 121.02497 7903 ft 240 kts 176°
2026-04-26 03:06 14.07247 121.02540 8145 ft 241 kts 177°
2026-04-26 03:06 14.05565 121.02584 8392 ft 242 kts 178°
2026-04-26 03:06 14.03873 121.02629 8641 ft 243 kts 178°
2026-04-26 03:06 14.02174 121.02642 8878 ft 245 kts 179°
2026-04-26 03:07 14.00464 121.02650 9135 ft 246 kts 179°
2026-04-26 03:07 13.98741 121.02667 9393 ft 248 kts 180°
2026-04-26 03:07 13.97013 121.02686 9652 ft 249 kts 180°
2026-04-26 03:07 13.95279 121.02703 9899 ft 250 kts 180°
2026-04-26 03:08 13.93554 121.02720 10129 ft 251 kts 180°
2026-04-26 03:08 13.91783 121.02738 10369 ft 252 kts 180°
2026-04-26 03:08 13.90041 121.02754 10492 ft 258 kts 181°
2026-04-26 03:08 13.88220 121.02767 10492 ft 265 kts 181°
2026-04-26 03:09 13.86362 121.02785 10488 ft 269 kts 180°
2026-04-26 03:09 13.84480 121.02803 10489 ft 271 kts 180°
2026-04-26 03:09 13.82586 121.02822 10491 ft 272 kts 180°
2026-04-26 03:09 13.80694 121.02843 10496 ft 271 kts 180°
2026-04-26 03:10 13.78803 121.02860 10490 ft 271 kts 180°
2026-04-26 03:10 13.76919 121.02878 10498 ft 270 kts 180°
2026-04-26 03:10 13.75025 121.02896 10263 ft 276 kts 180°
2026-04-26 03:10 13.73805 121.02903 9966 ft 253 kts 180°
2026-04-26 03:11 13.72084 121.02934 9470 ft 241 kts 179°
2026-04-26 03:11 13.70572 121.02959 8959 ft 205 kts 179°
2026-04-26 03:11 13.68746 121.02981 8354 ft 192 kts 178°
2026-04-26 03:11 13.67444 121.02994 8204 ft 187 kts 177°
2026-04-26 03:12 13.66572 121.03004 8122 ft 185 kts 177°
2026-04-26 03:12 13.65290 121.03014 7994 ft 183 kts 177°
2026-04-26 03:12 13.64022 121.03028 7858 ft 182 kts 177°
2026-04-26 03:12 13.62775 121.03039 7736 ft 181 kts 176°
2026-04-26 03:13 13.61517 121.03052 7610 ft 180 kts 176°
2026-04-26 03:13 13.60264 121.03064 7485 ft 180 kts 176°
2026-04-26 03:13 13.59015 121.03077 7359 ft 179 kts 176°
2026-04-26 03:13 13.57769 121.03090 7238 ft 179 kts 176°
2026-04-26 03:14 13.56531 121.03102 7113 ft 178 kts 177°
2026-04-26 03:14 13.55292 121.03114 6971 ft 179 kts 177°
2026-04-26 03:14 13.54020 121.03125 6624 ft 186 kts 178°
2026-04-26 03:14 13.52712 121.03138 6276 ft 188 kts 176°
2026-04-26 03:15 13.51436 121.03331 5894 ft 184 kts 159°
2026-04-26 03:15 13.50323 121.03952 5524 ft 181 kts 140°
2026-04-26 03:15 13.49479 121.04891 5159 ft 178 kts 123°
2026-04-26 03:15 13.48896 121.06019 4712 ft 182 kts 118°
2026-04-26 03:16 13.48293 121.07188 4126 ft 187 kts 118°
2026-04-26 03:16 13.47679 121.08378 3621 ft 189 kts 117°
2026-04-26 03:16 13.47076 121.09557 3011 ft 187 kts 116°
2026-04-26 03:16 13.46465 121.10759 2340 ft 192 kts 118°
2026-04-26 03:17 13.45919 121.12007 1786 ft 189 kts 106°
2026-04-26 03:17 13.45562 121.13215 1860 ft 168 kts 96°
2026-04-26 03:17 13.45455 121.14366 1980 ft 158 kts 107°
2026-04-26 03:17 13.44826 121.15261 2020 ft 160 kts 143°
2026-04-26 03:18 13.44005 121.16049 1830 ft 166 kts 124°
2026-04-26 03:18 13.43297 121.16978 1665 ft 138 kts 123°
2026-04-26 03:18 13.43008 121.17752 1133 ft 108 kts 105°
2026-04-26 03:18 13.42761 121.18514 475 ft 106 kts 110°
2026-04-26 03:19 13.42546 121.19289 138 ft 117 kts 106°
2026-04-26 03:19 13.42342 121.20017 -32 ft 92 kts 100°
2026-04-26 03:19 13.42245 121.20366 -39 ft 10 kts 104°
2026-04-26 03:19 13.42241 121.20368 -39 ft 0 kts 107°